Regional Weather Roundup
Issued by NWS

Home | Current Version | Previous Version | Text Only | Print | Product List | Glossary On
Versions: 1 2 3 4 5 6 7 8 9 10 11 12 13 14 15 16 17 18 19 20 21 22 23 24 25 26 27 28 29 30 31 32 33 34 35 36 37 38 39 40 41 42 43 44 45 46 47 48 49 50
000
ASUS44 KLIX 261713
RWRLA
LOUISIANA WEATHER ROUNDUP
NATIONAL WEATHER SERVICE NEW ORLEANS LA
1100 AM CST SUN FEB 26 2017

NOTE: "FAIR" INDICATES FEW OR NO CLOUDS BELOW 12,000 FEET WITH NO
      SIGNIFICANT WEATHER AND/OR OBSTRUCTIONS TO VISIBILITY.
      SKY/WX - SKY CONDITION AND SIGNIFICANT WEATHER.
      TMP - AIR TEMPERATURE.    DP   - DEWPOINT TEMPERATURE.
      RH  - RELATIVE HUMIDITY.  PRES - PRESSURE.
      HX  - HEAT INDEX.         WCI  - WIND CHILL INDEX.

*  THESE STATIONS ARE NOT NWS OR FAA STATIONS AND ARE NOT UNDER
   NWS QUALITY CONTROL.

LAZ040-048-061>063-065-066-069-261800-
SOUTHEAST LOUISIANA

CITY           SKY/WX    TMP DP  RH WIND       PRES   REMARKS
N.O. AUDUBON   NOT AVBL
N.O. INTL ARPT MOSUNNY   62  47  57 E14       30.19S
N.O. LAKEFRONT SUNNY     62  47  57 E20       30.20R
N.O. DOWNTOWN*   N/A     62  45  53 VRB5      30.20R
RESERVE*       FAIR      63  46  53 E10G18    30.19F
SLIDELL        SUNNY     60  29  30 E12G17    30.20F
BATON ROUGE    SUNNY     61  34  36 E14       30.18F
BOOTHVILLE     SUNNY     65  51  60 E15       30.18F
BELLE CHASSE   SUNNY     64  47  53 E15G23    30.19R
BOGALUSA*      FAIR      60  25  26 SE8       30.22F
GALLIANO*      SUNNY     66  48  51 E13G22    30.18R
NEW ROADS*     FAIR      57  33  41 SE9       30.18S
GONZALES*      FAIR      61  43  52 E10       30.18S
HAMMOND*       SUNNY     61  25  25 E9        30.20F
HOUMA*         SUNNY     64  50  59 E14       30.17R
PORT FOURCHON* NOT AVBL

$$

LAZ041-044-053-054-261800-
SOUTHWEST LOUISIANA

CITY           SKY/WX    TMP DP  RH WIND       PRES   REMARKS
LAKE CHARLES   SUNNY     63  48  58 E14       30.13R
LAFAYETTE      SUNNY     63  41  44 SE9       30.16S
PATTERSON      SUNNY     65  49  56 E14G22    30.17R
SALT POINT       N/A     65  50  58 E9        30.14S
NEW IBERIA     SUNNY     63  42  46 SE14      30.16F
CHENAULT AIRPK SUNNY     63  46  55 SE12G23   30.14R

$$

LAZ027-028-261800-
CENTRAL LOUISIANA

CITY           SKY/WX    TMP DP  RH WIND       PRES   REMARKS
FORT POLK      SUNNY     60  35  39 SE13      30.12S
ALEXANDRIA INT SUNNY     56  33  42 S10       30.14S
ALEXANDRIA     SUNNY     60  28  29 SE9       30.15S

$$

LAZ001-002-261800-
NORTHWEST LOUISIANA

CITY           SKY/WX    TMP DP  RH WIND       PRES   REMARKS
SHREVEPORT     MOSUNNY   61  29  29 S17       30.09F
BARKSDALE AFB  SUNNY     57  28  33 S14       30.10S
DTN SHREVEPORT SUNNY     57  30  35 SE18      30.10F

$$

LAZ014-016-261800-
NORTHEAST LOUISIANA

CITY           SKY/WX    TMP DP  RH WIND       PRES   REMARKS
MONROE         SUNNY     55  26  32 SE9       30.17F
TALLULAH       SUNNY     56  24  29 SE9       30.18S

$$




USA.gov is the U.S. government's official web portal to all federal, state and local government web resources and services.